Theta_e
336 336 337 338 339 339 335 333 332 329 327 326 326 326 325 323 320 323 324 325 326 328 328 332 333 333 335 336 338 337 337 337 333 334 335 331 327 325 318 317 311 308 305
335 335 334 333 333 333 333 333 333 330 329 327 326 325 323 322 323 323 323 323 326 326 327 327 330 333 333 334 335 338 338 335 335 333 333 327 326 324 320 315 311 308 306
327 331 334 334 334 334 333 330 329 330 329 328 327 326 325 324 323 322 321 320 319 320 321 322 322 326 332 333 334 335 337 334 334 335 334 329 324 319 315 312 311 308 306
323 323 322 325 334 333 332 332 331 330 330 329 327 326 325 324 322 321 321 320 320 320 319 319 319 321 324 327 334 333 334 335 334 334 334 329 324 318 315 311 309 309 306
320 320 320 320 321 334 334 332 332 331 330 329 327 326 325 324 323 323 322 322 322 321 320 321 320 319 323 327 330 333 334 333 333 333 331 328 323 317 315 312 312 309 308
319 318 318 319 319 320 326 333 333 331 330 329 328 327 326 326 325 324 324 323 322 322 322 323 320 317 314 313 316 327 331 334 333 332 331 329 325 321 318 317 315 309 309
317 317 318 318 318 318 319 320 325 328 329 329 328 328 327 327 327 326 325 324 323 322 321 319 319 319 318 318 316 323 330 333 334 333 331 329 326 324 321 319 315 312 312
316 316 317 317 317 318 318 319 319 320 323 322 323 323 326 326 326 326 325 325 325 324 321 321 320 320 320 319 319 318 328 331 334 335 333 332 329 325 325 322 319 316 316
314 315 316 316 316 316 317 318 318 317 319 323 323 323 324 324 324 325 325 326 326 326 324 323 321 321 320 319 320 321 324 328 331 333 332 334 330 327 325 322 320 320 315
314 314 314 314 314 314 314 315 315 316 318 320 320 322 323 324 324 325 325 326 325 324 324 323 321 321 320 319 321 322 324 328 331 332 331 331 329 327 325 324 322 321 317
312 311 312 312 312 311 311 311 311 312 313 314 316 318 318 320 322 323 323 324 323 322 321 321 321 321 320 319 319 321 323 325 331 332 330 328 327 326 324 324 324 321 317
309 308 308 309 309 309 309 309 309 309 309 310 311 313 315 317 317 320 322 323 322 322 321 321 321 320 319 319 319 320 325 324 330 329 328 324 324 324 324 325 324 321 319
307 307 307 308 308 308 308 308 309 309 308 308 308 309 311 314 317 317 319 320 321 321 321 321 321 320 319 319 317 316 321 324 327 327 325 324 325 324 324 324 324 318 317
304 304 305 305 306 306 306 306 305 306 306 307 307 307 308 310 313 316 318 318 319 317 316 317 319 319 318 317 318 318 321 329 326 326 325 325 324 324 322 323 321 318 316
302 302 303 303 303 304 304 303 303 304 305 306 307 307 307 308 310 312 315 316 317 316 316 316 316 315 314 316 317 319 321 325 326 325 324 322 320 319 317 318 317 317 314
301 301 301 301 302 302 302 302 302 302 302 303 304 304 304 306 308 310 310 312 312 312 316 319 317 315 315 316 317 316 318 321 323 323 321 319 317 316 315 315 317 314 310
299 300 300 300 300 300 301 301 301 301 301 301 301 301 301 301 302 304 306 305 307 309 310 315 319 318 317 317 317 316 316 318 321 321 319 318 316 313 312 311 310 309 308
299 299 300 300 300 300 300 300 300 300 301 301 301 301 301 301 302 302 302 303 302 303 306 310 314 315 317 317 316 316 317 318 319 319 318 317 314 311 312 311 309 308 307
297 297 297 298 299 300 300 301 301 301 301 301 301 302 302 303 303 303 303 301 302 303 306 308 309 312 314 317 316 316 317 317 318 317 316 315 313 312 312 310 308 307 307
294 294 294 296 297 299 300 300 301 302 302 302 302 302 303 304 304 302 302 300 302 304 306 308 309 311 312 315 316 317 317 317 316 315 314 313 311 311 310 307 306 305 305
292 293 294 294 296 297 298 299 299 301 302 303 303 303 303 304 305 306 305 303 303 305 307 308 309 311 312 314 316 316 316 316 316 314 312 311 310 309 308 307 306 305 304
293 294 295 296 297 298 298 299 300 300 302 304 304 304 305 305 305 307 308 308 307 306 307 307 309 310 312 313 315 316 316 315 315 313 311 310 308 308 307 306 306 304 303
293 294 295 296 297 299 301 301 301 302 303 303 306 306 306 306 306 307 309 310 310 308 308 308 309 310 313 313 315 316 316 315 313 311 310 308 307 306 306 306 305 304 303
296 297 298 298 299 300 302 304 304 303 305 305 306 307 308 309 308 309 310 311 311 310 310 310 310 311 314 314 315 316 315 314 312 310 309 307 307 306 305 305 304 303 303
296 298 303 306 303 304 305 306 307 307 308 307 308 310 311 311 309 309 311 311 311 311 310 311 311 313 314 315 315 315 314 313 311 309 308 307 306 306 305 304 304 303 303
293 296 299 305 310 311 311 311 312 312 312 311 311 311 310 310 310 309 309 310 311 312 312 311 312 313 314 315 315 314 313 312 310 309 308 307 307 306 305 304 304 303 303
Wind_Speed
22 20 17 16 16 18 11 17 21 21 19 19 19 19 17 14 12 11 12 13 14 17 19 19 20 20 22 20 20 19 18 16 8 7 15 17 27 31 29 24 23 20 15
27 27 27 24 23 20 16 15 15 15 17 18 18 16 15 14 13 13 13 13 14 16 19 18 18 19 22 20 19 19 21 19 14 10 15 23 25 31 31 28 25 20 16
12 13 22 26 28 28 27 26 25 23 20 19 16 15 15 16 17 16 14 14 15 16 18 19 19 18 19 21 21 20 20 20 17 14 13 21 19 29 29 28 24 21 17
12 16 17 15 16 31 32 32 32 29 26 23 21 20 19 19 19 19 17 17 17 18 18 19 21 20 20 20 22 22 21 20 17 14 19 20 28 30 32 32 22 22 22
10 11 11 13 15 9 29 32 32 29 26 25 22 21 22 22 22 22 21 21 21 22 22 19 18 20 21 20 18 21 23 20 14 15 17 16 20 26 29 26 22 25 23
7 7 5 5 9 10 6 14 23 27 26 24 25 24 25 23 24 26 26 26 27 27 25 23 24 25 26 28 25 24 22 22 19 18 19 24 26 30 29 29 25 23 8
10 10 10 9 10 9 11 12 9 13 21 18 25 28 29 28 27 26 26 28 30 30 28 27 27 29 29 30 27 25 22 21 24 23 27 28 25 36 35 31 29 27 16
8 10 13 11 15 14 16 17 17 18 20 21 23 32 35 32 32 34 35 36 35 35 32 31 32 30 29 29 31 30 27 20 18 23 25 31 39 38 44 42 36 26 18
12 14 14 16 15 15 18 20 20 19 21 21 27 33 36 37 37 38 36 36 37 37 36 35 32 28 29 29 28 29 30 29 21 17 22 30 35 38 42 30 27 25 11
18 18 18 17 17 15 15 18 19 18 20 22 26 26 30 36 37 35 35 35 34 35 38 35 29 26 26 28 28 30 29 26 22 19 21 29 32 37 43 42 36 26 15
13 13 11 10 12 16 18 18 20 22 24 22 23 24 27 25 27 31 34 34 32 26 29 29 28 27 26 28 30 30 35 30 23 24 20 27 32 38 41 38 32 35 29
20 21 21 21 22 21 22 26 26 27 27 26 26 27 26 28 32 28 33 32 30 31 27 29 29 28 28 28 26 29 28 34 24 21 22 26 28 32 35 37 34 36 38
16 18 18 20 22 21 22 23 23 22 22 22 23 26 29 28 27 33 32 33 33 32 34 33 34 32 32 32 32 34 29 25 25 22 23 26 32 35 34 33 35 30 32
22 23 24 24 26 27 26 26 26 27 27 28 27 26 27 27 28 30 31 36 40 40 44 40 38 37 38 36 33 30 25 24 25 25 25 28 28 31 33 36 32 31 30
24 25 25 24 25 25 28 29 30 31 29 27 27 27 26 26 26 29 30 28 33 35 25 30 32 31 28 28 27 22 24 24 25 24 24 27 29 32 31 37 36 32 24
27 26 25 23 24 25 27 27 31 35 36 39 40 38 31 29 26 24 15 13 11 13 17 18 21 23 23 24 22 22 23 25 26 27 28 31 31 32 31 33 38 34 27
28 28 27 27 26 25 24 25 22 28 33 39 42 45 46 48 44 38 37 32 16 12 11 12 10 18 19 22 24 24 24 28 30 31 30 31 31 31 34 32 31 30 24
27 29 29 28 27 26 26 26 25 23 21 24 29 37 41 42 44 44 44 43 29 26 21 19 16 15 18 21 23 23 25 26 30 30 31 31 33 35 31 30 31 31 28
27 27 27 28 27 27 28 27 27 27 26 27 25 27 32 34 36 37 38 36 32 31 27 25 23 21 19 21 25 26 28 29 30 30 31 32 32 34 30 30 29 30 28
27 29 30 29 27 26 25 26 26 25 25 25 25 28 24 25 24 27 31 31 31 32 33 28 25 24 24 24 25 26 29 32 33 32 31 32 33 35 33 32 30 29 30
26 26 27 27 26 26 26 25 26 25 24 25 27 28 27 23 23 23 24 28 29 31 32 31 29 26 27 27 27 28 29 32 34 33 32 32 33 32 32 33 29 29 26
24 24 24 24 24 25 26 26 25 25 25 24 26 25 26 29 26 25 24 25 30 32 33 35 33 32 31 30 30 30 30 31 32 33 33 33 33 31 32 32 28 28 29
23 24 24 24 25 26 24 25 24 23 23 23 22 23 23 25 27 27 26 25 26 30 32 34 35 33 34 35 34 35 34 35 36 37 36 35 33 33 33 30 30 31 31
20 21 23 24 23 22 21 21 21 24 23 22 23 24 24 26 25 26 26 27 29 30 32 35 36 36 35 35 35 36 37 37 38 40 41 38 36 36 32 30 31 33 31
20 20 20 15 19 18 18 18 18 19 20 22 23 22 23 21 21 23 23 25 27 27 30 32 34 37 38 39 39 37 37 39 39 40 39 39 40 39 30 32 32 32 31
25 23 23 21 13 5 5 8 8 9 10 12 13 13 13 14 18 19 20 21 22 25 28 32 32 34 40 44 44 41 41 44 41 43 40 42 39 36 32 34 35 31 35
Wind_Direction
189 188 194 201 207 212 212 217 217 212 204 201 193 194 208 221 231 237 250 262 269 274 282 281 277 279 277 274 273 275 271 260 216 195 181 200 194 197 192 190 184 179 169
189 194 196 199 204 210 218 221 215 201 203 206 202 208 217 223 229 235 244 256 266 272 278 289 296 289 275 275 274 268 265 269 248 176 181 184 196 197 198 188 184 179 174
164 200 214 210 205 207 206 212 225 230 227 230 230 221 221 224 230 236 241 251 262 270 276 282 289 294 297 279 278 268 268 275 267 211 182 189 187 180 187 189 182 179 174
66 62 52 30 245 215 214 211 211 216 213 216 224 227 230 236 238 241 242 248 254 261 268 276 283 291 291 300 284 279 273 272 270 234 180 171 175 182 184 173 170 184 172
37 54 35 23 12 301 227 217 212 206 206 210 215 227 233 237 239 242 246 250 251 258 263 262 273 285 289 290 295 294 277 263 261 194 166 163 163 163 179 180 170 171 182
14 23 16 10 351 356 354 228 209 209 214 214 223 224 231 237 244 246 249 251 257 258 251 248 264 278 288 290 289 285 284 270 255 191 184 184 184 187 177 175 165 157 175
338 330 331 323 300 307 311 300 272 234 238 238 241 236 233 235 239 247 252 255 257 256 249 260 268 273 280 291 289 287 280 270 254 238 195 196 187 190 180 174 178 178 175
307 313 299 296 296 308 295 279 272 277 258 252 237 252 253 249 250 249 251 254 258 260 256 263 267 267 274 282 287 285 284 272 261 242 230 219 207 197 197 193 185 178 178
264 272 279 285 287 293 300 295 281 274 274 260 249 247 248 253 253 250 250 251 253 256 257 259 259 261 270 278 279 279 279 274 264 252 253 234 219 209 198 182 173 170 167
255 255 262 277 296 298 296 301 307 316 309 289 276 270 262 255 252 249 246 248 250 253 258 256 252 255 262 274 271 271 270 268 254 234 236 217 216 210 202 203 183 175 170
337 335 333 317 308 300 297 292 296 298 294 294 293 285 272 268 265 258 250 245 246 248 247 242 243 249 257 267 268 272 264 265 253 236 226 208 198 196 196 197 200 185 173
304 302 300 296 287 283 283 284 282 279 277 278 279 281 276 271 264 263 251 241 247 242 239 242 242 243 253 257 270 279 288 252 242 213 200 193 188 189 193 200 193 194 194
291 284 279 274 270 270 274 276 275 265 261 266 266 265 263 261 259 252 252 244 239 242 249 251 247 243 245 250 266 268 282 251 225 194 190 193 197 197 193 193 192 187 196
287 279 275 271 269 271 263 260 261 260 260 259 259 262 262 260 254 251 246 243 243 247 253 249 244 244 247 252 251 255 259 247 216 202 197 193 192 187 184 187 180 178 175
279 277 274 271 268 266 260 256 254 253 250 252 255 254 254 254 251 254 249 250 244 242 238 247 249 245 236 233 234 236 238 236 214 207 189 172 171 172 171 174 171 170 170
273 270 266 264 261 257 257 259 256 255 253 253 255 256 258 257 250 245 250 229 228 248 215 225 224 223 216 210 208 217 223 222 213 194 184 173 169 166 162 165 169 168 166
265 265 264 259 255 253 250 250 256 259 256 255 256 256 257 257 255 254 257 266 254 258 271 232 219 218 216 208 206 212 211 210 201 186 179 172 168 164 160 157 158 158 168
268 264 259 257 253 249 247 249 249 251 256 254 252 252 254 253 253 252 251 255 248 252 253 252 222 228 213 209 207 205 206 196 185 183 179 172 168 165 164 161 162 164 172
266 262 261 261 257 253 253 249 246 244 244 248 251 248 246 248 249 250 246 234 232 229 224 226 223 222 221 214 206 202 196 186 182 179 177 172 171 170 168 167 166 170 181
271 266 260 258 257 255 251 249 247 244 241 242 244 244 244 237 232 232 233 223 224 227 223 224 219 214 216 217 210 199 192 185 179 180 178 173 172 171 165 163 166 172 179
271 266 256 252 249 248 247 245 245 244 243 239 243 244 239 228 231 230 218 214 212 211 209 210 205 203 210 208 202 197 190 184 183 181 175 174 172 171 169 166 168 171 177
269 263 257 251 248 243 241 240 239 237 241 240 241 243 240 234 233 234 227 214 213 214 211 207 206 204 205 203 197 193 185 181 178 177 175 173 171 169 165 162 164 174 174
275 265 256 249 245 245 244 235 235 235 237 239 240 234 233 229 228 228 228 220 210 207 207 203 202 200 200 199 196 191 185 181 179 176 172 168 166 163 160 165 174 178 170
290 272 258 246 238 236 236 236 230 232 235 235 235 235 233 231 225 224 222 220 212 207 201 198 199 200 195 192 190 190 189 184 181 177 171 167 165 161 166 172 177 174 166
338 330 323 244 226 225 232 233 232 232 234 234 236 237 234 221 218 218 214 207 204 201 200 196 197 195 193 188 186 185 184 182 178 174 169 165 159 164 171 166 176 169 164
356 358 2 8 34 44 223 237 243 237 232 228 228 230 232 216 215 210 205 202 201 199 192 194 196 189 185 186 187 183 182 179 175 171 168 164 161 170 172 172 180 167 163